SHENZHOU-11 MODULE (41868 NORAD) Tracking and Keplerian Element Data

This shows tracking and keplerian element data for the satellite.

Feedback or suggestion? Click here.




ElementValue
Catalog41868
NameSHENZHOU-11 MODULE
Epoch Orbit14433
Epoch Day145.82398025
Epoch Year2019
RAAN24.8066
Inclination42.7948
Eccentricity0.0007408
Argument of Perigee253.5962
Mean Anonmoly148.5535
Mean Motion15.7977767
Decay Rate9.389E-05
L11 41868U 16061G 19145.82398025 .00009389 00000-0 52004-4 0 9992
L22 41868 42.7948 24.8066 0007408 253.5962 148.5535 15.79777670144332

Live tracking and technical data element details for SHENZHOU-11 MODULE (NORAD 41868). SHENZHOU-11 MODULE can be tracked NOW for your location showing map with azimuth and elevation plus other details from your city location.

Track the satellite on the map from your city or location and see movement details for azimuth, elevation, latitude, longitude, range, height, and movement on the map or in text.







IsCatalogInMostPopularTable: catalog: 41868, numindb: 246
Update: records affected: 1



GetName: 41868 SHENZHOU-11 MODULE

Hit Count: updated at: Sun, 26 May 2019 18:57:24 GMT